This is the latest recevied weather packets stored in our database for station/object W6MAF. If no packets are shown the sender has not sent any weather packets the latest 10 day(s).
| Time | Temp. | Humidity | Pressure | Rain* | Wind** | Luminosity | Snow |
|---|---|---|---|---|---|---|---|
| 1788661041 | 22.78° C | 23% | - | 0 mm | 3.58 m/s, 181° | - | - |
| 1788660740 | 23.33° C | 23% | - | 0 mm | 4.02 m/s, 163° | - | - |
| 1788660442 | 23.33° C | 23% | - | 0 mm | 5.36 m/s, 179° | - | - |
| 1788660145 | 23.33° C | 22% | - | 0 mm | 4.47 m/s, 160° | - | - |
| 1788659847 | 23.33° C | 21% | - | 0 mm | 3.58 m/s, 186° | - | - |
| 1788659549 | 23.33° C | 21% | - | 0 mm | 4.02 m/s, 169° | - | - |
| 1788658950 | 23.89° C | 20% | - | 0 mm | 4.02 m/s, 183° | - | - |
| 1788658653 | 23.89° C | 19% | - | 0 mm | 5.36 m/s, 186° | - | - |
| 1788658355 | 24.44° C | 19% | - | 0 mm | 4.92 m/s, 170° | - | - |
| 1788658057 | 24.44° C | 18% | - | 0 mm | 4.92 m/s, 176° | - | - |
| 1788657759 | 24.44° C | 19% | - | 0 mm | 4.92 m/s, 173° | - | - |
| 1788657462 | 24.44° C | 19% | - | 0 mm | 5.36 m/s, 165° | - | - |
| 1788657161 | 24.44° C | 18% | - | 0 mm | 7.15 m/s, 195° | - | - |
| 1788656863 | 25° C | 18% | - | 0 mm | 6.26 m/s, 177° | - | - |
| 1788656565 | 25° C | 17% | - | 0 mm | 4.92 m/s, 183° | - | - |
| 1788656268 | 25° C | 17% | - | 0 mm | 4.92 m/s, 211° | - | - |
| 1788655673 | 25.56° C | 16% | - | 0 mm | 7.6 m/s, 177° | - | - |
| 1788655371 | 25.56° C | 16% | - | 0 mm | 6.26 m/s, 183° | - | - |
| 1788655073 | 25.56° C | 16% | - | 0 mm | 6.71 m/s, 170° | - | - |
| 1788654776 | 25.56° C | 15% | - | 0 mm | 6.26 m/s, 193° | - | - |
| 1788654478 | 25.56° C | 15% | - | 0 mm | 6.71 m/s, 170° | - | - |
| 1788654180 | 25.56° C | 15% | - | 0 mm | 6.26 m/s, 194° | - | - |
| 1788653882 | 26.11° C | 14% | - | 0 mm | 5.36 m/s, 205° | - | - |
| 1788653582 | 26.11° C | 13% | - | 0 mm | 5.36 m/s, 200° | - | - |
| 1788653284 | 26.11° C | 15% | - | 0 mm | 4.92 m/s, 179° | - | - |
* Rain latest hour (hover to see other rain measurements)
** Current wind speed in m/s (hover to see current wind gust speed)